TimeEST,TemperatureF,Dew PointF,Humidity,Sea Level PressureIn,VisibilityMPH,Wind Direction,Wind SpeedMPH,Gust SpeedMPH,PrecipitationIn,Events,Conditions,WindDirDegrees,DateUTC
12:53 AM,60.1,53.1,78,30.14,10.0,NE,6.9,-,N/A,,Mostly Cloudy,40,2012-12-06 05:53:00
1:00 AM,59.0,53.6,82,30.14,10.0,NE,6.9,-,N/A,,Scattered Clouds,40,2012-12-06 06:00:00
1:15 AM,59.0,53.6,82,30.14,10.0,NE,4.6,-,N/A,,Mostly Cloudy,50,2012-12-06 06:15:00
1:24 AM,59.0,51.8,77,30.14,10.0,NE,3.5,-,N/A,,Scattered Clouds,40,2012-12-06 06:24:00
1:53 AM,57.9,52.0,81,30.14,10.0,Calm,Calm,-,N/A,,Partly Cloudy,0,2012-12-06 06:53:00
2:53 AM,57.0,51.1,81,30.15,10.0,NE,3.5,-,N/A,,Mostly Cloudy,50,2012-12-06 07:53:00
3:53 AM,57.9,51.1,78,30.14,10.0,NE,3.5,-,N/A,,Overcast,50,2012-12-06 08:53:00
4:53 AM,57.0,48.9,74,30.14,10.0,NE,5.8,-,N/A,,Overcast,40,2012-12-06 09:53:00
5:53 AM,57.0,51.1,81,30.15,10.0,NE,9.2,-,N/A,,Overcast,40,2012-12-06 10:53:00
6:53 AM,57.0,52.0,83,30.18,10.0,NE,5.8,-,N/A,,Overcast,40,2012-12-06 11:53:00
7:49 AM,55.4,53.6,94,30.20,2.5,NE,6.9,-,N/A,,Overcast,50,2012-12-06 12:49:00
7:53 AM,55.9,53.1,90,30.20,2.0,NE,8.1,-,N/A,,Overcast,50,2012-12-06 12:53:00
8:18 AM,55.4,53.6,94,30.20,2.5,NE,8.1,-,N/A,,Overcast,50,2012-12-06 13:18:00
8:42 AM,55.4,53.6,94,30.21,3.0,NE,6.9,-,N/A,,Overcast,50,2012-12-06 13:42:00
8:53 AM,55.0,52.0,89,30.21,2.0,NE,8.1,-,N/A,,Overcast,50,2012-12-06 13:53:00
9:19 AM,55.4,53.6,94,30.22,3.0,ENE,5.8,-,N/A,,Overcast,60,2012-12-06 14:19:00
9:46 AM,55.4,51.8,88,30.22,8.0,ENE,9.2,-,N/A,,Overcast,60,2012-12-06 14:46:00
9:53 AM,55.9,52.0,87,30.22,9.0,Variable,5.8,-,N/A,,Overcast,0,2012-12-06 14:53:00
10:12 AM,57.2,51.8,82,30.22,10.0,NE,9.2,-,N/A,,Overcast,50,2012-12-06 15:12:00
10:29 AM,57.2,48.2,72,30.22,10.0,NE,10.4,-,N/A,,Overcast,50,2012-12-06 15:29:00
10:43 AM,57.2,48.2,72,30.22,10.0,NE,9.2,-,N/A,,Overcast,50,2012-12-06 15:43:00
10:53 AM,59.0,48.0,67,30.21,10.0,NE,10.4,-,N/A,,Overcast,40,2012-12-06 15:53:00
11:53 AM,61.0,43.0,52,30.19,10.0,ENE,10.4,-,N/A,,Overcast,60,2012-12-06 16:53:00
12:53 PM,63.0,43.0,48,30.16,10.0,ENE,6.9,-,N/A,,Overcast,60,2012-12-06 17:53:00
1:53 PM,63.0,44.1,50,30.14,10.0,ENE,6.9,-,N/A,,Mostly Cloudy,60,2012-12-06 18:53:00
2:53 PM,64.0,46.0,52,30.14,10.0,NE,10.4,-,N/A,,Overcast,40,2012-12-06 19:53:00
3:53 PM,63.0,46.0,54,30.14,10.0,ENE,9.2,-,N/A,,Overcast,60,2012-12-06 20:53:00
4:53 PM,59.0,44.1,58,30.16,10.0,NE,10.4,-,N/A,,Overcast,40,2012-12-06 21:53:00
5:53 PM,57.0,42.1,57,30.17,10.0,NE,9.2,-,N/A,,Overcast,40,2012-12-06 22:53:00
6:53 PM,54.0,41.0,62,30.18,10.0,ENE,6.9,-,N/A,,Overcast,60,2012-12-06 23:53:00
7:53 PM,53.1,39.9,61,30.19,10.0,NE,10.4,-,N/A,,Overcast,50,2012-12-07 00:53:00
8:53 PM,52.0,39.0,61,30.19,10.0,ENE,6.9,-,N/A,,Overcast,60,2012-12-07 01:53:00
9:53 PM,51.1,39.0,63,30.18,10.0,NE,5.8,-,N/A,,Overcast,50,2012-12-07 02:53:00
10:29 PM,51.8,39.2,62,30.17,10.0,NE,9.2,-,N/A,,Overcast,40,2012-12-07 03:29:00
10:53 PM,50.0,39.0,66,30.17,10.0,ENE,5.8,-,N/A,,Overcast,70,2012-12-07 03:53:00
11:53 PM,50.0,39.0,66,30.15,10.0,NE,6.9,-,N/A,,Overcast,50,2012-12-07 04:53:00